Temperature
2 2 2 3 3 3 3 4 4 4 4 4 4 4 4 4 4 4 4 5 5 5 5 5 5 5 5 5 5 5 5 4 4 5 5 5 5 5 5 5 5 5 5
2 2 2 2 2 2 3 3 3 3 3 3 3 3 3 3 3 3 4 4 4 4 4 4 4 4 4 4 4 4 4 4 4 4 4 4 5 5 5 4 4 4 4
1 1 1 1 1 2 2 2 2 2 2 3 3 3 3 3 3 3 3 3 3 3 3 4 4 4 4 4 4 4 4 4 3 3 4 4 4 4 4 4 4 4 4
1 1 1 1 1 1 1 1 1 2 2 2 2 2 2 2 2 2 2 2 3 3 3 3 3 3 3 3 3 3 3 3 3 3 3 3 3 3 3 3 3 3 3
0 0 0 0 0 0 0 0 1 1 1 1 1 1 2 2 2 2 2 2 2 2 2 2 3 3 3 3 3 3 3 3 3 3 2 2 2 2 3 3 2 2 2
-0 -0 -0 -0 -0 -0 -0 0 0 0 1 1 1 1 1 1 1 1 1 1 1 1 1 2 2 2 2 2 2 2 2 2 2 2 2 2 2 2 2 2 2 2 1
-1 -1 -1 -1 -1 -0 -0 -0 -0 -0 0 0 0 0 0 0 1 1 1 1 1 1 1 1 1 1 2 2 2 2 2 2 2 2 1 2 2 2 1 1 1 1 1
-1 -1 -1 -1 -1 -1 -1 -1 -1 -1 -1 -0 -0 -0 -0 -0 -0 0 0 0 0 0 0 0 1 1 1 1 1 1 1 1 1 1 1 1 1 1 1 1 1 1 0
-2 -2 -2 -2 -1 -1 -1 -1 -1 -1 -1 -1 -1 -1 -1 -1 -1 -0 -0 -0 -0 -0 -0 -0 -0 0 0 0 0 0 0 0 0 0 0 1 1 1 0 0 -0 -0 -0
-2 -2 -2 -2 -2 -2 -2 -2 -2 -2 -1 -1 -1 -1 -1 -1 -1 -1 -1 -1 -1 -1 -1 -1 -1 -1 -0 -0 -0 -0 -0 -0 -0 -0 -0 -0 0 0 0 -0 -0 -1 -1
-3 -3 -3 -3 -2 -2 -2 -2 -2 -2 -2 -2 -2 -2 -2 -2 -1 -1 -2 -2 -2 -2 -2 -2 -1 -1 -1 -1 -1 -1 -1 -1 -1 -1 -1 -1 -1 -1 -1 -1 -1 -1 -1
-3 -3 -3 -3 -3 -3 -3 -3 -3 -2 -2 -2 -2 -2 -2 -2 -2 -2 -2 -2 -2 -3 -2 -2 -2 -2 -2 -2 -2 -2 -2 -2 -2 -2 -2 -2 -2 -1 -1 -1 -1 -1 -1
-3 -3 -3 -3 -3 -3 -3 -3 -3 -3 -3 -3 -3 -3 -3 -2 -2 -3 -3 -3 -3 -3 -3 -3 -3 -3 -3 -3 -2 -2 -2 -2 -2 -2 -2 -2 -2 -2 -2 -2 -2 -2 -2
-4 -4 -4 -4 -4 -4 -4 -4 -4 -4 -4 -4 -4 -4 -3 -3 -3 -3 -3 -3 -3 -3 -3 -3 -3 -3 -3 -3 -3 -3 -3 -3 -3 -3 -3 -3 -3 -3 -3 -2 -2 -2 -2
-4 -4 -5 -4 -4 -4 -4 -4 -4 -4 -4 -4 -4 -4 -4 -4 -4 -4 -4 -4 -4 -4 -4 -4 -4 -4 -4 -4 -3 -3 -3 -3 -4 -4 -4 -4 -4 -3 -3 -3 -3 -3 -3
-5 -5 -5 -5 -5 -5 -5 -5 -5 -5 -5 -5 -5 -5 -5 -5 -5 -4 -4 -4 -4 -4 -4 -4 -4 -4 -4 -4 -4 -4 -4 -4 -4 -4 -4 -4 -4 -4 -4 -4 -4 -4 -4
-5 -5 -5 -5 -5 -5 -5 -5 -5 -5 -5 -5 -5 -5 -5 -5 -5 -5 -5 -4 -4 -4 -4 -4 -4 -4 -4 -4 -4 -4 -4 -4 -4 -4 -4 -4 -4 -4 -4 -4 -4 -4 -4
-5 -5 -6 -6 -6 -6 -6 -6 -6 -6 -5 -5 -5 -5 -5 -5 -5 -5 -5 -5 -4 -4 -4 -4 -4 -4 -4 -4 -4 -4 -4 -4 -4 -4 -4 -4 -4 -4 -4 -4 -4 -4 -4
-6 -6 -6 -6 -6 -6 -6 -6 -6 -6 -6 -6 -5 -5 -5 -5 -5 -5 -5 -5 -5 -5 -5 -5 -5 -5 -5 -4 -4 -4 -4 -4 -4 -4 -5 -5 -5 -5 -5 -5 -5 -5 -5
-6 -6 -6 -6 -6 -6 -6 -6 -6 -6 -6 -6 -6 -6 -6 -5 -5 -5 -5 -5 -5 -5 -5 -5 -5 -5 -5 -4 -5 -5 -5 -5 -4 -5 -5 -5 -5 -5 -5 -5 -5 -5 -5
-6 -6 -7 -7 -7 -7 -7 -7 -7 -7 -6 -6 -6 -6 -6 -6 -6 -5 -5 -5 -5 -5 -5 -5 -5 -5 -5 -5 -5 -5 -5 -5 -5 -5 -5 -5 -5 -5 -5 -5 -5 -5 -5
-7 -7 -7 -7 -7 -7 -7 -7 -7 -7 -7 -7 -6 -6 -6 -6 -6 -6 -6 -5 -5 -5 -5 -5 -5 -5 -5 -5 -5 -5 -5 -5 -5 -5 -5 -5 -5 -5 -5 -5 -5 -5 -5
-7 -7 -7 -7 -7 -7 -7 -7 -7 -7 -7 -7 -7 -7 -7 -6 -6 -6 -6 -6 -6 -6 -5 -5 -5 -5 -5 -5 -5 -5 -5 -5 -5 -5 -5 -5 -5 -5 -5 -5 -5 -5 -5
-7 -7 -7 -7 -7 -7 -7 -7 -7 -8 -8 -7 -7 -7 -7 -7 -7 -6 -6 -6 -6 -6 -6 -6 -5 -5 -5 -5 -5 -5 -5 -5 -5 -5 -5 -5 -5 -5 -5 -5 -5 -5 -5
-7 -8 -8 -8 -7 -7 -7 -7 -8 -8 -8 -8 -7 -7 -7 -7 -7 -7 -6 -6 -6 -6 -6 -6 -6 -6 -5 -5 -5 -5 -5 -5 -5 -5 -5 -5 -5 -5 -5 -5 -5 -5 -6
-8 -8 -8 -8 -8 -8 -8 -8 -8 -8 -8 -8 -7 -7 -7 -7 -7 -7 -7 -7 -6 -6 -6 -6 -6 -6 -6 -6 -6 -6 -6 -5 -5 -5 -5 -5 -5 -5 -5 -5 -5 -6 -6
Wind_Speed
2 2 2 2 2 2 1 1 1 2 2 2 3 3 3 3 3 3 4 3 4 4 4 5 6 5 5 4 4 4 4 4 6 5 3 3 3 4 5 6 7 8 9
2 2 2 2 2 2 2 2 2 2 2 2 3 3 3 3 3 4 4 4 5 5 5 5 6 4 5 5 5 5 5 5 5 7 4 3 5 5 5 5 5 6 7
3 2 2 2 2 2 3 2 2 2 3 3 3 3 3 3 3 4 4 5 5 5 6 6 6 5 5 4 5 5 5 5 5 5 5 4 4 4 3 4 4 4 6
3 3 3 3 3 3 3 3 3 3 3 3 3 3 3 3 3 4 4 5 5 5 5 6 6 6 6 6 6 5 5 4 4 5 5 4 4 3 3 3 4 3 4
3 4 4 3 3 3 3 3 3 3 4 3 4 4 3 3 4 4 4 5 4 5 5 5 5 7 8 7 6 5 5 5 4 5 5 5 4 4 4 4 4 3 3
4 4 4 4 3 3 3 4 4 4 4 4 4 4 4 4 5 6 5 4 5 5 5 5 5 6 7 8 8 8 8 7 6 6 6 6 6 6 4 4 3 3 4
4 5 4 4 3 4 4 4 4 5 5 5 5 5 5 5 6 7 7 5 5 5 5 5 5 5 5 4 5 6 6 8 9 7 7 7 6 5 5 5 5 4 5
5 5 4 4 4 4 4 4 5 4 5 5 5 5 5 5 6 7 7 5 5 5 5 5 5 4 5 4 3 4 4 5 7 6 6 7 6 5 5 5 5 3 3
4 5 5 5 5 5 5 5 5 4 5 4 4 4 4 5 6 7 7 4 4 4 4 5 5 5 6 6 4 4 4 4 5 6 7 6 6 6 5 2 2 2 4
5 5 5 5 5 5 5 5 4 4 4 4 4 4 4 4 6 7 6 3 3 3 3 4 6 6 7 6 4 4 5 4 3 3 3 3 3 4 6 5 5 4 3
5 5 5 4 5 4 4 4 4 3 3 3 4 4 4 4 5 6 6 3 3 3 3 3 4 7 7 6 5 4 6 4 2 2 2 2 2 2 2 3 3 4 4
4 4 4 4 4 4 3 3 3 3 3 3 3 3 3 3 4 5 5 5 4 3 4 4 4 6 7 7 6 5 5 3 2 2 2 2 2 2 1 1 1 2 3
4 4 4 4 4 4 3 3 3 3 3 3 3 3 3 2 3 5 5 6 6 4 3 5 7 7 6 5 5 5 3 2 2 2 2 2 1 1 1 1 1 0 1
3 4 4 4 4 3 3 3 3 3 3 3 3 3 3 3 3 2 3 3 4 4 3 5 6 6 4 3 3 2 1 2 2 2 2 1 1 1 1 1 1 1 1
3 4 4 4 4 3 3 3 3 3 3 4 3 4 4 4 4 5 4 3 3 3 3 2 2 3 2 2 1 1 1 1 1 1 1 1 1 1 1 1 1 1 1
3 3 3 3 3 3 3 4 4 4 6 7 7 6 5 7 8 7 6 6 6 5 3 2 3 3 3 2 2 1 1 1 1 1 1 1 1 1 1 1 1 1 1
3 3 3 3 3 3 3 3 4 5 6 7 7 7 7 7 7 6 6 6 6 4 3 3 3 3 3 2 2 2 2 1 1 1 1 1 1 1 1 1 1 1 1
3 4 4 3 3 3 3 3 3 4 4 4 5 6 6 6 6 5 5 4 3 3 2 3 3 3 2 2 2 2 1 1 1 1 1 1 1 1 1 1 1 1 1
3 3 3 3 3 3 3 3 3 4 4 4 4 4 5 5 5 4 3 2 3 3 2 2 2 2 2 2 2 2 2 2 2 2 1 2 2 2 1 1 1 2 1
3 4 4 3 3 3 3 3 3 3 3 3 3 3 3 3 2 2 2 2 2 2 2 2 2 1 1 1 1 1 1 2 2 2 2 2 2 2 2 1 1 1 1
3 4 5 4 3 3 3 3 3 3 3 3 3 3 4 2 2 2 2 2 2 2 2 1 1 1 1 1 1 2 2 2 2 2 2 2 2 1 1 1 1 1 1
3 3 3 3 3 3 3 3 3 3 3 3 3 3 5 3 2 2 2 2 2 1 1 1 1 1 2 2 2 2 2 2 2 2 2 2 2 2 2 1 1 1 1
3 3 3 3 3 4 3 2 2 2 2 2 3 3 3 2 2 2 2 2 2 1 1 1 1 1 1 1 2 2 2 2 2 2 2 2 2 2 2 2 2 2 1
3 3 3 3 3 2 2 2 2 2 2 2 2 2 2 2 2 3 3 2 2 2 1 1 1 1 1 1 2 1 2 2 2 3 3 3 2 2 2 2 2 2 2
3 4 3 3 3 3 3 3 2 2 2 2 2 2 2 3 3 3 2 2 2 1 1 2 1 1 1 2 2 1 2 2 2 2 2 2 3 2 2 2 2 2 1
3 4 3 3 3 3 3 3 3 2 2 2 2 2 3 3 3 3 3 2 2 2 2 2 2 2 2 2 1 1 1 2 2 2 1 2 2 2 2 1 2 2 2
Wind_Direction
328 320 321 310 307 307 290 284 274 271 260 252 244 228 226 242 245 240 244 242 243 252 245 236 237 231 229 227 222 223 225 227 252 268 267 261 246 248 254 252 249 246 248
316 320 323 321 312 301 293 289 278 270 264 262 255 245 239 243 242 240 250 253 247 248 247 241 240 237 233 232 229 226 227 225 236 257 263 254 252 244 241 244 252 252 249
323 319 318 318 314 302 294 287 279 269 267 265 263 258 258 252 249 244 247 258 257 251 246 242 241 237 238 240 240 237 236 239 236 245 257 257 254 244 243 252 252 252 260
318 311 301 292 288 287 289 287 279 273 269 268 264 262 261 262 256 256 254 255 258 258 255 248 243 235 236 236 238 238 238 238 237 240 250 250 248 243 228 240 256 246 257
311 302 294 290 288 287 288 284 277 275 275 268 269 269 264 258 257 261 261 261 258 264 266 260 253 248 244 243 242 235 233 236 238 246 247 250 244 234 234 234 247 257 258
304 301 299 297 295 288 278 280 280 274 271 268 262 261 258 260 271 275 272 264 262 262 265 266 261 253 250 251 251 248 240 235 235 240 250 247 244 239 241 234 237 254 266
305 300 299 298 296 291 285 281 274 271 269 265 262 258 256 259 270 274 277 267 257 259 263 268 271 267 261 249 253 256 252 250 243 237 243 246 250 240 232 237 232 240 253
299 298 300 296 292 292 288 281 275 272 271 267 263 261 261 266 271 272 279 265 255 258 262 265 264 266 263 250 241 251 253 255 252 244 240 244 244 242 234 234 233 255 276
297 296 300 297 291 288 284 281 278 274 272 269 265 263 263 273 275 274 276 261 262 264 268 272 269 267 266 259 249 253 261 268 266 258 253 246 245 244 237 227 221 229 266
292 295 297 295 289 284 283 281 279 279 276 275 273 271 266 268 275 274 270 258 260 268 274 275 278 278 276 264 253 245 253 261 263 284 285 274 257 244 243 226 211 222 253
295 294 295 296 294 289 287 284 285 284 285 283 280 282 278 277 282 279 276 261 256 262 268 273 274 283 282 274 268 255 256 262 251 255 262 261 260 247 244 233 220 219 233
303 299 299 301 300 301 295 290 284 281 282 282 283 288 284 283 285 283 284 284 279 260 263 267 272 282 279 277 272 268 265 265 241 238 248 258 254 253 258 239 227 246 251
311 309 301 300 303 304 294 288 286 281 280 282 280 284 292 287 285 292 289 289 288 273 268 280 290 288 283 278 278 273 261 249 232 231 242 259 259 247 286 321 355 307 286
304 306 303 302 302 305 300 288 281 280 277 280 281 284 291 295 287 282 279 286 285 280 279 291 304 303 292 292 292 282 244 221 227 237 245 253 260 257 264 270 271 257 301
298 301 305 303 300 300 299 288 277 268 268 273 274 277 284 286 285 290 288 281 274 271 288 290 292 298 302 299 283 268 238 217 240 241 230 235 243 256 272 271 260 269 265
295 299 300 299 299 296 297 303 297 283 290 287 282 277 279 279 290 290 286 286 287 287 283 273 270 267 266 263 252 260 247 229 233 229 229 233 232 233 258 274 272 271 266
291 294 296 295 294 294 295 297 306 309 301 298 295 289 281 283 289 287 286 287 282 279 269 259 259 254 254 246 238 245 251 234 225 210 222 226 229 234 237 244 260 269 272
299 298 299 292 292 293 289 290 294 300 308 309 306 302 300 294 290 287 288 293 284 269 254 254 255 254 250 241 233 237 231 209 210 211 212 213 216 221 223 240 251 260 270
300 297 297 300 302 301 301 299 295 293 296 300 308 311 314 311 304 296 293 272 262 265 264 256 252 248 245 241 233 224 215 209 207 207 211 215 217 215 220 236 246 252 267
305 302 303 300 300 303 305 302 299 297 298 299 303 308 317 320 315 304 286 273 264 268 268 262 255 243 234 234 232 221 214 211 205 210 217 217 217 213 215 224 234 242 258
309 310 311 308 302 300 303 300 294 293 297 302 302 305 318 317 305 302 301 289 277 275 273 271 261 245 236 228 228 227 220 218 211 207 212 213 208 211 214 219 227 240 239
314 308 306 304 305 306 304 300 297 295 299 305 312 323 330 330 318 315 314 313 303 288 283 266 260 246 231 224 225 226 223 220 217 210 210 208 205 205 202 208 213 218 201
323 318 316 310 307 309 315 318 316 314 315 321 329 334 335 330 328 325 317 314 311 309 315 307 281 285 288 266 246 223 220 224 219 206 202 200 197 197 198 203 208 208 206
325 321 318 319 321 321 313 311 310 313 318 323 329 333 332 328 326 323 320 318 315 313 318 315 296 270 289 298 306 290 262 241 222 207 195 195 198 201 206 207 205 203 198
333 331 330 331 331 326 319 317 316 318 324 326 326 328 328 324 323 321 319 320 317 321 323 319 310 298 284 288 293 280 250 244 240 221 201 187 193 200 204 200 192 174 165
334 334 330 331 329 325 321 319 318 319 318 318 318 318 318 317 316 315 316 322 326 327 330 331 323 317 309 305 289 276 273 257 245 232 196 169 182 189 184 181 167 158 147
Height
1459 1459 1458 1459 1459 1459 1459 1459 1459 1461 1461 1461 1462 1462 1463 1464 1465 1466 1466 1467 1468 1469 1470 1471 1471 1472 1473 1474 1475 1476 1476 1477 1475 1474 1477 1478 1478 1479 1479 1480 1480 1480 1480
1456 1456 1455 1455 1456 1455 1455 1455 1456 1456 1457 1457 1458 1458 1458 1459 1460 1461 1462 1462 1463 1464 1464 1465 1465 1466 1467 1468 1469 1469 1470 1470 1471 1469 1470 1471 1472 1472 1473 1473 1473 1473 1473
1454 1453 1452 1452 1452 1452 1451 1451 1452 1452 1452 1453 1453 1453 1454 1455 1455 1456 1457 1457 1458 1458 1459 1460 1460 1461 1461 1461 1462 1463 1463 1464 1464 1464 1464 1465 1465 1466 1466 1466 1466 1466 1466
1451 1450 1449 1449 1449 1449 1448 1448 1448 1448 1448 1448 1449 1449 1450 1450 1451 1451 1452 1452 1453 1453 1453 1454 1455 1455 1455 1456 1456 1457 1458 1458 1458 1459 1459 1459 1460 1460 1460 1459 1459 1459 1460
1448 1447 1446 1446 1446 1445 1445 1445 1445 1444 1445 1445 1445 1445 1445 1446 1446 1447 1447 1447 1448 1447 1448 1448 1449 1449 1450 1451 1451 1451 1452 1452 1453 1453 1453 1453 1453 1453 1454 1453 1453 1453 1453
1445 1444 1443 1443 1442 1442 1441 1441 1441 1441 1441 1441 1441 1441 1441 1441 1442 1442 1442 1442 1442 1442 1442 1443 1443 1444 1444 1445 1445 1446 1447 1447 1447 1447 1447 1447 1447 1448 1448 1447 1447 1447 1446
1442 1441 1440 1440 1439 1438 1438 1438 1437 1437 1437 1436 1436 1436 1436 1436 1437 1437 1438 1438 1437 1437 1438 1438 1438 1438 1439 1439 1440 1440 1441 1441 1442 1442 1441 1441 1442 1442 1442 1442 1442 1441 1441
1438 1437 1437 1436 1435 1435 1434 1434 1433 1433 1433 1432 1432 1432 1432 1432 1432 1433 1433 1432 1432 1433 1433 1433 1433 1433 1433 1434 1434 1434 1434 1435 1436 1436 1436 1436 1437 1437 1437 1437 1436 1436 1436
1435 1434 1434 1433 1432 1431 1430 1430 1430 1429 1428 1428 1428 1428 1427 1427 1428 1428 1428 1428 1428 1428 1428 1428 1428 1428 1429 1429 1429 1428 1428 1429 1430 1430 1431 1431 1431 1431 1432 1431 1431 1431 1430
1431 1431 1430 1429 1428 1427 1426 1426 1426 1425 1424 1424 1423 1424 1423 1423 1423 1423 1424 1423 1423 1423 1423 1423 1423 1424 1424 1424 1424 1423 1423 1423 1424 1424 1424 1424 1425 1425 1426 1426 1426 1426 1425
1428 1427 1426 1426 1425 1424 1423 1422 1421 1421 1420 1419 1419 1419 1419 1419 1419 1419 1419 1419 1418 1418 1418 1418 1418 1419 1419 1419 1419 1419 1419 1419 1419 1419 1418 1418 1419 1419 1420 1420 1421 1421 1421
1425 1424 1423 1422 1421 1420 1419 1418 1417 1417 1416 1415 1415 1415 1415 1415 1415 1415 1415 1415 1414 1414 1414 1414 1414 1414 1415 1415 1415 1415 1415 1415 1414 1414 1413 1413 1413 1414 1414 1415 1416 1416 1417
1421 1420 1419 1418 1417 1416 1415 1414 1413 1413 1412 1411 1411 1410 1410 1410 1410 1410 1410 1410 1410 1410 1410 1410 1411 1411 1411 1410 1410 1410 1410 1410 1409 1409 1408 1409 1409 1409 1410 1410 1411 1411 1412
1418 1417 1416 1415 1414 1413 1412 1411 1410 1409 1409 1408 1408 1407 1407 1406 1406 1406 1406 1407 1407 1406 1406 1406 1407 1407 1406 1406 1406 1406 1406 1406 1405 1405 1405 1405 1405 1405 1405 1406 1406 1406 1407
1416 1415 1413 1412 1411 1410 1409 1408 1407 1406 1406 1405 1404 1404 1403 1403 1403 1403 1403 1403 1403 1403 1403 1403 1403 1402 1402 1402 1402 1402 1402 1402 1402 1402 1402 1401 1401 1401 1402 1402 1403 1402 1402
1413 1412 1411 1410 1409 1408 1406 1405 1404 1404 1403 1402 1402 1401 1400 1400 1400 1400 1400 1400 1400 1400 1400 1399 1399 1399 1398 1398 1398 1398 1398 1398 1398 1398 1398 1398 1398 1398 1399 1399 1399 1399 1399
1410 1409 1408 1407 1406 1405 1404 1403 1401 1401 1400 1399 1398 1397 1397 1396 1396 1396 1396 1397 1397 1397 1396 1396 1396 1396 1395 1395 1395 1395 1395 1395 1395 1396 1396 1395 1395 1395 1396 1396 1396 1396 1396
1407 1407 1406 1404 1404 1403 1401 1400 1399 1398 1396 1395 1395 1394 1394 1393 1393 1393 1394 1394 1393 1393 1393 1393 1393 1393 1392 1392 1392 1392 1392 1393 1393 1393 1393 1393 1393 1393 1393 1393 1393 1393 1393
1405 1404 1403 1402 1401 1400 1399 1398 1397 1396 1394 1393 1392 1392 1391 1391 1391 1391 1391 1391 1390 1390 1390 1390 1390 1390 1390 1390 1389 1389 1390 1390 1390 1390 1390 1391 1391 1391 1391 1391 1391 1391 1391
1403 1402 1401 1400 1399 1398 1397 1396 1394 1393 1392 1391 1390 1390 1389 1389 1388 1388 1388 1388 1388 1387 1387 1387 1387 1387 1387 1387 1387 1387 1387 1387 1388 1388 1388 1389 1389 1389 1389 1389 1389 1389 1389
1401 1400 1399 1398 1396 1395 1394 1393 1392 1391 1390 1389 1388 1388 1388 1387 1386 1386 1385 1385 1385 1385 1385 1385 1384 1384 1384 1384 1384 1384 1385 1385 1385 1386 1386 1386 1387 1387 1387 1387 1388 1388 1388
1399 1398 1397 1396 1395 1394 1392 1391 1390 1389 1388 1387 1386 1386 1386 1385 1384 1383 1383 1383 1383 1383 1382 1382 1382 1382 1382 1382 1382 1382 1382 1383 1383 1384 1384 1384 1385 1385 1385 1386 1386 1386 1387
1398 1397 1395 1394 1393 1392 1391 1390 1388 1387 1386 1385 1384 1384 1383 1383 1382 1381 1381 1381 1380 1380 1380 1380 1380 1380 1380 1380 1381 1381 1381 1381 1381 1382 1382 1382 1383 1383 1384 1384 1384 1385 1385
1397 1395 1394 1393 1392 1391 1389 1388 1387 1386 1385 1384 1383 1382 1381 1381 1380 1380 1379 1379 1378 1378 1378 1378 1378 1378 1378 1378 1379 1379 1379 1379 1379 1380 1380 1381 1381 1381 1382 1383 1383 1383 1384
1396 1394 1393 1392 1391 1389 1388 1387 1386 1384 1383 1383 1382 1381 1380 1379 1379 1378 1377 1377 1376 1376 1376 1376 1376 1376 1376 1376 1377 1377 1377 1377 1377 1378 1378 1379 1379 1380 1380 1381 1381 1382 1382
1395 1393 1392 1391 1390 1388 1387 1386 1384 1383 1382 1382 1381 1380 1379 1378 1377 1377 1376 1375 1375 1375 1375 1375 1374 1374 1374 1374 1375 1375 1375 1375 1376 1376 1377 1377 1378 1378 1379 1380 1380 1381 1381